Lid_Strength_Index
5 5 6 6 7 7 4 2 5 1 -0 5 4 6 5 8 5 4 5 5 6 6 6 7 7 7 6 4 5 6 5 7 9 8 5 5 7 10 10 13 14 14 16 15
5 5 6 6 7 7 6 4 3 1 1 7 6 4 5 4 5 5 5 6 5 5 6 7 6 6 5 4 5 6 5 7 10 9 7 6 7 8 8 9 9 10 15 14
5 5 6 6 7 7 4 4 6 3 3 3 5 6 6 6 4 5 5 5 4 6 6 5 6 6 5 4 5 3 3 7 8 10 8 7 8 7 7 7 10 10 9 10
5 5 5 6 7 7 4 5 5 6 7 6 5 5 6 7 7 4 4 6 6 6 8 7 7 7 6 5 7 5 5 8 7 7 7 7 7 8 8 8 8 9 9 8
5 5 5 6 7 7 5 6 7 6 7 6 6 7 6 7 6 6 7 7 6 6 8 8 9 7 7 7 5 5 5 8 7 8 7 7 8 7 8 9 9 7 7 8
5 5 5 6 7 7 6 7 6 6 8 6 8 7 7 8 7 5 5 5 6 7 6 5 5 5 5 5 6 7 7 8 8 9 7 7 9 7 7 8 6 7 8 6
5 6 6 6 7 7 6 7 7 7 9 8 8 9 8 8 8 9 8 7 7 4 3 3 4 5 5 5 5 5 7 7 8 10 9 12 7 5 5 6 6 5 5 5
6 6 6 6 6 7 6 6 7 8 10 9 9 8 8 8 8 8 8 7 6 5 5 7 8 8 7 6 5 5 5 7 9 11 11 8 7 6 7 7 7 5 5 5
6 6 6 6 7 7 7 5 6 8 10 9 9 9 9 10 10 9 8 7 6 6 7 8 10 11 9 9 8 5 5 6 8 10 11 12 8 5 5 5 9 5 5 5
6 6 7 7 6 7 7 6 6 8 10 9 9 10 11 9 10 10 9 8 8 7 9 11 11 10 7 10 10 10 9 9 10 10 11 8 5 5 4 11 10 4 6 5
6 6 7 7 7 7 7 7 6 8 10 9 8 8 9 9 9 11 9 9 8 8 10 10 10 11 9 8 7 8 10 13 12 10 11 12 4 5 8 6 5 5 5 5
7 7 7 7 7 7 7 8 6 6 9 9 7 7 7 7 8 9 9 10 9 9 10 9 9 10 9 9 11 6 9 8 9 9 9 5 4 4 3 3 4 5 4 4
7 7 7 7 7 7 7 8 7 7 9 9 8 8 6 5 6 6 10 9 8 8 7 9 10 11 9 10 10 8 7 5 8 8 7 7 5 4 3 3 4 4 4 4
7 7 7 7 7 7 7 8 7 7 9 11 9 6 7 6 6 6 6 7 6 7 7 9 10 10 7 9 7 8 7 6 8 8 6 6 6 4 3 3 4 4 4 4
7 7 7 7 7 7 7 7 7 6 9 11 10 8 6 5 6 6 6 7 7 7 8 9 9 8 8 7 7 9 9 8 8 9 7 7 7 5 4 3 4 4 4 3
7 7 7 7 7 7 8 9 6 6 6 10 12 8 7 6 5 6 6 5 5 5 6 6 5 4 6 8 9 7 9 9 8 7 6 5 5 4 3 3 3 3 3 2
7 7 7 7 7 8 10 10 7 7 6 10 11 10 6 5 4 4 3 2 3 3 4 5 5 5 5 7 9 6 5 8 9 8 9 8 5 6 4 4 4 4 2 2
7 7 7 7 7 7 9 7 6 6 8 8 11 10 7 4 5 5 3 4 4 4 5 5 6 5 5 8 6 4 4 4 8 8 8 7 4 3 4 4 4 5 5 3
7 7 7 7 8 9 7 5 5 4 7 10 10 10 8 3 4 4 4 4 7 4 6 6 6 7 9 7 6 5 4 4 5 8 8 7 5 4 4 4 5 5 5 3
7 8 8 10 7 5 4 5 7 7 7 7 9 5 7 4 5 6 7 6 8 9 7 5 7 8 5 4 4 4 4 3 3 6 8 7 6 5 4 4 4 4 3 3
7 9 9 6 4 5 7 9 8 8 10 8 7 5 7 3 8 9 6 9 8 12 9 10 11 11 8 5 5 4 4 4 3 3 5 6 5 5 4 4 4 3 3 3
8 8 6 5 6 7 9 9 7 8 9 6 7 6 4 4 4 7 8 10 9 13 8 11 13 9 7 7 5 5 4 4 4 3 3 5 5 4 3 4 4 4 4 2
6 7 7 8 8 11 11 11 10 10 6 6 5 6 5 5 4 8 9 11 12 8 12 12 10 7 6 7 6 5 5 4 4 3 3 4 4 3 3 4 4 4 4 2
8 9 11 9 10 8 8 7 7 5 5 5 5 5 5 5 8 8 12 9 9 13 14 13 8 7 6 7 6 5 5 4 4 4 3 5 4 3 3 4 3 4 4 3
7 8 12 9 6 5 4 4 4 4 3 4 5 5 5 7 10 9 10 11 13 11 12 9 7 6 6 7 7 5 5 5 5 4 4 5 4 4 4 3 3 4 3 4
6 7 8 6 6 5 5 4 5 3 3 3 4 7 9 10 10 11 12 12 12 10 8 6 5 5 5 6 6 5 4 4 4 4 5 4 4 4 4 3 3 3 3 5
8 7 5 5 5 5 4 4 4 2 4 7 6 9 9 7 10 11 8 11 8 6 6 5 4 5 5 6 6 5 4 4 4 5 5 4 3 3 4 5 4 3 3 4